TimeEDT,TemperatureF,Dew PointF,Humidity,Sea Level PressureIn,VisibilityMPH,Wind Direction,Wind SpeedMPH,Gust SpeedMPH,PrecipitationIn,Events,Conditions,WindDirDegrees,DateUTC
12:55 AM,61.9,44.6,53,30.01,10.0,NNE,10.4,-,N/A,,Mostly Cloudy,20,2012-10-07 04:55:00
1:55 AM,60.3,44.4,56,30.00,10.0,Variable,6.9,-,N/A,,Partly Cloudy,0,2012-10-07 05:55:00
2:55 AM,60.4,45.0,57,30.01,10.0,North,5.8,-,N/A,,Overcast,10,2012-10-07 06:55:00
3:55 AM,60.3,46.0,59,30.01,10.0,North,4.6,-,N/A,,Mostly Cloudy,350,2012-10-07 07:55:00
4:31 AM,60.8,46.4,59,30.03,10.0,NNW,8.1,-,N/A,Rain,Light Rain,340,2012-10-07 08:31:00
4:55 AM,58.5,49.8,73,30.05,5.0,NNW,10.4,-,0.04,Rain,Heavy Rain,340,2012-10-07 08:55:00
5:55 AM,53.2,50.5,91,30.05,10.0,NNE,9.2,-,0.07,Rain,Light Rain,20,2012-10-07 09:55:00
6:28 AM,53.6,51.8,94,30.05,10.0,NNE,8.1,-,N/A,,Mostly Cloudy,20,2012-10-07 10:28:00
6:49 AM,53.6,51.8,94,30.05,10.0,North,5.8,-,N/A,Rain,Light Rain,10,2012-10-07 10:49:00
6:55 AM,53.4,51.1,92,30.05,10.0,North,8.1,-,0.00,Rain,Light Rain,10,2012-10-07 10:55:00
7:04 AM,53.6,51.8,94,30.05,10.0,Variable,5.8,-,N/A,,Overcast,0,2012-10-07 11:04:00
7:18 AM,53.6,51.8,94,30.05,10.0,NNE,5.8,-,N/A,,Light Drizzle,20,2012-10-07 11:18:00
7:26 AM,53.6,51.8,94,30.05,10.0,NNE,6.9,-,N/A,,Overcast,30,2012-10-07 11:26:00
7:48 AM,53.6,51.8,94,30.04,10.0,NNE,5.8,-,N/A,Rain,Light Rain,20,2012-10-07 11:48:00
7:55 AM,54.3,51.8,91,30.05,10.0,North,5.8,-,0.00,Rain,Light Rain,10,2012-10-07 11:55:00
8:07 AM,53.6,51.8,94,30.06,10.0,North,6.9,-,N/A,,Overcast,360,2012-10-07 12:07:00
8:41 AM,53.6,51.8,94,30.06,10.0,North,8.1,-,N/A,Rain,Light Rain,360,2012-10-07 12:41:00
8:55 AM,54.3,51.6,91,30.06,10.0,North,8.1,-,0.01,Rain,Light Rain,10,2012-10-07 12:55:00
9:04 AM,53.6,51.8,94,30.05,10.0,Variable,6.9,-,N/A,,Overcast,0,2012-10-07 13:04:00
9:33 AM,55.4,51.8,88,30.06,10.0,North,6.9,-,N/A,Rain,Light Rain,10,2012-10-07 13:33:00
9:52 AM,55.4,51.8,88,30.08,10.0,North,8.1,-,N/A,Rain,Light Rain,360,2012-10-07 13:52:00
9:55 AM,55.0,51.8,89,30.08,10.0,NNW,8.1,-,0.00,Rain,Light Rain,340,2012-10-07 13:55:00
10:11 AM,55.4,51.8,88,30.07,8.0,North,8.1,-,N/A,Rain,Light Rain,360,2012-10-07 14:11:00
10:12 AM,55.4,51.8,88,30.07,7.0,Variable,5.8,-,N/A,Rain,Rain,0,2012-10-07 14:12:00
10:44 AM,55.4,51.8,88,30.10,6.0,North,13.8,18.4,N/A,Rain-Thunderstorm,Heavy Thunderstorms and Rain,350,2012-10-07 14:44:00
10:51 AM,53.6,51.8,94,30.13,2.5,NNW,10.4,18.4,N/A,Rain-Thunderstorm,Heavy Thunderstorms and Rain,330,2012-10-07 14:51:00
10:52 AM,53.6,51.8,94,30.13,2.5,NW,13.8,21.9,N/A,Rain-Thunderstorm,Heavy Thunderstorms and Rain,320,2012-10-07 14:52:00
10:54 AM,53.6,51.8,94,30.13,2.5,NNW,15.0,21.9,N/A,Rain-Thunderstorm,Heavy Thunderstorms and Rain,330,2012-10-07 14:54:00
10:55 AM,54.3,52.0,92,30.13,2.5,NNW,12.7,21.9,0.13,Rain-Thunderstorm,Heavy Thunderstorms and Rain,340,2012-10-07 14:55:00
10:57 AM,53.6,51.8,94,30.11,2.0,NNW,12.7,21.9,N/A,Rain-Thunderstorm,Heavy Thunderstorms and Rain,340,2012-10-07 14:57:00
10:58 AM,53.6,51.8,94,30.11,1.8,North,10.4,21.9,N/A,Rain-Thunderstorm,Heavy Thunderstorms and Rain,360,2012-10-07 14:58:00
11:02 AM,53.6,51.8,94,30.11,1.5,NNW,8.1,21.9,N/A,Rain-Thunderstorm,Heavy Thunderstorms and Rain,340,2012-10-07 15:02:00
11:08 AM,53.6,51.8,94,30.12,1.5,NNW,6.9,-,N/A,Rain-Thunderstorm,Heavy Thunderstorms and Rain,340,2012-10-07 15:08:00
11:10 AM,53.6,51.8,94,30.12,1.8,NNW,8.1,-,N/A,Rain-Thunderstorm,Heavy Thunderstorms and Rain,340,2012-10-07 15:10:00
11:11 AM,53.6,51.8,94,30.11,1.8,North,8.1,-,N/A,Rain-Thunderstorm,Heavy Thunderstorms and Rain,350,2012-10-07 15:11:00
11:12 AM,53.6,51.8,94,30.11,2.0,North,9.2,-,N/A,Rain-Thunderstorm,Heavy Thunderstorms and Rain,10,2012-10-07 15:12:00
11:14 AM,53.6,51.8,94,30.09,1.8,NNE,10.4,17.3,N/A,Rain,Heavy Rain,20,2012-10-07 15:14:00
11:17 AM,53.6,51.8,94,30.10,2.0,North,10.4,17.3,N/A,Rain,Heavy Rain,10,2012-10-07 15:17:00
11:28 AM,53.6,51.8,94,30.07,1.8,NNE,10.4,16.1,N/A,Rain-Thunderstorm,Heavy Rain,20,2012-10-07 15:28:00
11:42 AM,53.6,51.8,94,30.09,2.0,North,4.6,-,N/A,Rain,Heavy Rain,10,2012-10-07 15:42:00
11:45 AM,53.6,51.8,94,30.08,3.0,NE,5.8,-,N/A,Rain,Heavy Rain,40,2012-10-07 15:45:00
11:55 AM,52.9,51.3,94,30.04,4.0,East,10.4,-,0.57,Rain,Rain,80,2012-10-07 15:55:00
12:10 PM,53.6,51.8,94,30.06,6.0,Variable,3.5,-,N/A,Rain,Light Rain,0,2012-10-07 16:10:00
12:11 PM,53.6,51.8,94,30.06,7.0,NNW,4.6,-,N/A,Rain,Light Rain,340,2012-10-07 16:11:00
12:25 PM,53.6,51.8,94,30.07,10.0,NNW,8.1,-,N/A,,Overcast,340,2012-10-07 16:25:00
12:37 PM,53.6,51.8,94,30.06,10.0,North,8.1,-,N/A,,Overcast,10,2012-10-07 16:37:00
12:55 PM,55.0,52.9,92,30.06,10.0,NNE,5.8,-,0.04,,Overcast,20,2012-10-07 16:55:00
1:55 PM,55.9,53.2,91,30.04,10.0,Variable,4.6,-,N/A,,Overcast,0,2012-10-07 17:55:00
2:55 PM,55.6,52.3,89,30.02,10.0,NNE,8.1,-,N/A,,Overcast,20,2012-10-07 18:55:00
3:06 PM,55.4,51.8,88,30.02,10.0,North,9.2,-,N/A,,Overcast,10,2012-10-07 19:06:00
3:22 PM,55.4,51.8,88,30.02,10.0,NNE,5.8,-,N/A,,Light Drizzle,20,2012-10-07 19:22:00
3:38 PM,55.4,51.8,88,30.01,10.0,NNE,4.6,-,N/A,,Overcast,30,2012-10-07 19:38:00
3:45 PM,55.4,51.8,88,30.01,10.0,Variable,5.8,-,N/A,Rain,Light Rain,0,2012-10-07 19:45:00
3:55 PM,55.6,52.5,89,30.02,10.0,North,6.9,-,0.00,Rain,Light Rain,10,2012-10-07 19:55:00
4:02 PM,55.4,51.8,88,30.01,10.0,NNE,6.9,-,N/A,,Overcast,20,2012-10-07 20:02:00
4:19 PM,55.4,51.8,88,30.01,10.0,NNE,3.5,-,N/A,,Light Drizzle,30,2012-10-07 20:19:00
4:55 PM,54.9,53.1,94,30.01,4.0,North,5.8,-,0.01,Rain,Light Rain,10,2012-10-07 20:55:00
5:03 PM,55.4,53.6,94,30.01,7.0,North,4.6,-,N/A,,Light Drizzle,10,2012-10-07 21:03:00
5:17 PM,55.4,53.6,94,30.02,9.0,NNW,3.5,-,N/A,,Light Drizzle,340,2012-10-07 21:17:00
5:26 PM,55.4,53.6,94,30.02,9.0,NNW,4.6,-,N/A,,Light Drizzle,340,2012-10-07 21:26:00
5:55 PM,54.9,53.4,95,30.03,9.0,Variable,6.9,-,0.01,,Light Drizzle,0,2012-10-07 21:55:00
6:55 PM,54.0,52.2,94,30.07,6.0,NNW,6.9,-,0.01,Rain,Light Rain,330,2012-10-07 22:55:00
6:59 PM,53.6,51.8,94,30.07,5.0,NNW,10.4,-,N/A,Rain,Light Rain,340,2012-10-07 22:59:00
7:26 PM,53.6,51.8,94,30.09,6.0,NNW,11.5,17.3,N/A,Rain,Light Rain,340,2012-10-07 23:26:00
7:55 PM,52.9,50.9,93,30.11,7.0,NNW,13.8,19.6,0.01,Rain,Light Rain,330,2012-10-07 23:55:00
8:54 PM,53.6,50.0,88,30.13,10.0,NNW,11.5,20.7,N/A,,Overcast,340,2012-10-08 00:54:00
8:55 PM,52.9,50.2,91,30.13,10.0,North,12.7,20.7,0.01,,Overcast,350,2012-10-08 00:55:00
9:04 PM,53.6,50.0,88,30.12,10.0,NNW,11.5,19.6,N/A,,Overcast,340,2012-10-08 01:04:00
9:21 PM,53.6,50.0,88,30.13,10.0,North,11.5,20.7,N/A,,Overcast,10,2012-10-08 01:21:00
9:53 PM,53.6,50.0,88,30.14,10.0,North,6.9,-,N/A,,Overcast,10,2012-10-08 01:53:00
9:55 PM,52.7,49.8,90,30.14,10.0,North,6.9,-,N/A,,Overcast,10,2012-10-08 01:55:00
10:55 PM,52.7,50.2,91,30.14,10.0,Variable,4.6,-,N/A,,Overcast,0,2012-10-08 02:55:00
11:55 PM,52.9,49.8,89,30.15,10.0,Variable,6.9,-,N/A,,Overcast,0,2012-10-08 03:55:00